www.pogodaiklimat.ru

Погода и климат >> Архив погоды >> Малайзия >> Kuala Trengganu


ПОГОДА в Kuala Trengganu

  • Прогноз погоды в Kuala Trengganu
  • Монитор погоды в Kuala Trengganu
  • Климат города

АРХИВ ПОГОДЫ в Kuala Trengganu

Время (UTC), дата Ветер
(напр.,м/с)
 
Видим.   Явления Облачность Т
(С)
Тd
(С)
f
(%)
Тe
(С)
Тes
(С)
Комфортность P
(гПа)
Po
(гПа)
Тmin
(С)
Tmax
(С)
R
(мм)
R24
(мм)
S
(см)
00 5.12 ЮЗ 2 14 км дымка 9/4 150 м
[Cb cap Ac cuf Ci ing]
+25.3 +24.5 95 +35 +36 очень
душно
1008.2 1007.5 +24.8
06 5.12 СВ 3 16 км осадки на расстоянии 9/5 500 м
[Cb cap Ac cuf Ci ing]
+30.3 +26.4 80 +46 +50 опасность
перегрева
1008.1 1007.4
12 5.12 Ю 2 8000 м слабый ливневой дождь, в посл. час гроза 9/5 240 м
[Sc Ac As]
+23.5 +23.2 98 +31 +31 очень
душно
1008.4 1007.7 +31.0 55
18 5.12 Ю 1 6000 м дождь 10/6 150 м
[Sc As op]
+24.3 +24.0 98 +33 +33 очень
душно
1009.3 1008.6 5
00 6.12 ЮЗ 1 12 км слабый дождь 10/5 240 м
[Sc Ac As]
+24.2 +23.8 98 +33 +33 очень
душно
1009.5 1008.8 +22.5 60
06 6.12 С 1 14 км осадки на расстоянии {дождь} 9/5 300 м
[Cu med, cong Ac As]
+28.3 +24.5 80 +40 +44 очень
душно
1009.2 1008.5 0.2
12 6.12 СВ 2 14 км 9/3 660 м
[Sc diur, vesp Ac As]
+26.9 +24.4 86 +38 +38 очень
душно
1008.9 1008.2 +28.9
15 6.12 СВ 2 14 км 9/3 660 м
[Sc diur, vesp Ac As]
+26.9 +24.4 86 +38 +38 очень
душно
1008.9 1008.2 +28.9
18 6.12 ЮЗ 1 14 км 9/4 660 м
[Sc Ac As]
+26.3 +25.3 94 +38 +38 очень
душно
1010.1 1009.4
00 7.12 З 1 16 км в посл. час дождь 9/3 660 м
[Sc Ac trans Ci fib]
+24.2 +23.3 95 +32 +33 очень
душно
1009.7 1009.0 +23.8 15
06 7.12 СВ 2 9000 м дождь 9/5 240 м
[Sc Ac As]
+28.3 +26.5 90 +44 +47 опасность
перегрева
1009.4 1008.7 11
12 7.12 СВ 3 8000 м слабый дождь 9/5 660 м
[Sc Ac As Ci sp]
+26.9 +25.0 89 +39 +39 очень
душно
1010.0 1009.3 +29.3 5
18 7.12 С 1 14 км 9/4 660 м
[Sc Ac trans Ci fib]
+27.5 +24.5 84 +39 +39 очень
душно
1011.6 1010.9
00 8.12 С 4 12 км осадки на расстоянии 9/4 660 м
[Sc Ac cast Ci sp]
+27.7 +24.0 80 +38 +38 очень
душно
1011.3 1010.6 +24.2 16
06 8.12 С 4 10 км слабый дождь 9/5 300 м
[Sc Ac As]
+28.1 +25.0 83 +40 +43 очень
душно
1010.4 1009.7 2
12 8.12 ЮЗ 3 7000 м слабый дождь 9/5 150 м
[Sc As op]
+24.5 +23.7 95 +33 +33 очень
душно
1011.7 1011.0 +29.4 25
18 8.12 штиль 0 10 км 9/3 660 м
[Sc Ac As]
+24.1 +23.8 98 +33 +33 очень
душно
1011.0 1010.3 0.4
00 9.12 Ю 1 9000 м дымка 9/4 150 м
[Sc Ac As Ci sp]
+24.3 +23.8 97 +33 +33 очень
душно
1011.5 1010.8 +23.9 27
06 9.12 В 3 14 км мгла 9/4 540 м
[Cu med, cong Ac As Ci sp]
+29.7 +23.9 71 +41 +46 опасность
перегрева
1011.7 1011.0
12 9.12 В 3 12 км мгла 9/4 660 м
[Sc Ac As]
+27.7 +23.3 77 +37 +37 очень
душно
1011.7 1011.0 +30.8
18 9.12 СВ 2 9000 м мгла 9/4 660 м
[Sc Ac As Ci fib]
+27.0 +22.8 78 +36 +36 очень
душно
1011.6 1010.9
00 10.12 СЗ 1 12 км в посл. час дождь 9/4 660 м
[Sc Ac lent Ci sp]
+25.5 +24.1 92 +35 +36 очень
душно
1012.8 1012.1 +24.3 0.4
03 10.12 СЗ 1 12 км в посл. час дождь 9/4 660 м
[Sc Ac lent Ci sp]
+25.5 +24.1 92 +35 +40 очень
душно
1012.8 1012.1 +24.3 0.4
06 10.12 СВ 3 12 км осадки на расстоянии 9/4 540 м
[Cu med, cong Ac lent Ci sp]
+29.2 +23.4 71 +40 +44 очень
душно
1012.5 1011.8
09 10.12 СВ 3 12 км осадки на расстоянии 9/4 540 м
[Cu med, cong Ac lent Ci sp]
+29.2 +23.4 71 +40 +41 очень
душно
1012.5 1011.8
12 10.12 ЮЗ 1 10 км мгла 9/4 600 м
[Sc Ac lent Ci sp]
+26.3 +24.3 89 +37 +37 очень
душно
1012.2 1011.5 +30.0
18 10.12 Ю 2 12 км мгла 9/4 660 м
[Sc Ac lent Ci sp]
+24.2 +23.4 95 +32 +32 очень
душно
1012.4 1011.7
21 10.12 Ю 2 12 км мгла 9/4 660 м
[Sc Ac lent Ci sp]
+24.2 +23.4 95 +32 +32 очень
душно
1012.4 1011.7
00 11.12 Ю 2 12 км осадки на расстоянии {дождь} 9/5 <50 м
[Sc Ac und Ci sp]
+24.1 +23.2 95 +32 +32 очень
душно
1012.7 1012.0 +23.8 0.8
03 11.12 Ю 2 12 км осадки на расстоянии {дождь} 9/5 <50 м
[Sc Ac und Ci sp]
+24.1 +23.2 95 +32 +36 очень
душно
1012.7 1012.0 +23.8 0.8
06 11.12 С 3 12 км мгла 9/5 540 м
[Cu med, cong Ac lent Ci sp]
+28.6 +23.7 75 +39 +44 очень
душно
1011.4 1010.7
12 11.12 СВ 3 10 км мгла 9/4 600 м
[Sc Ac trans Ci sp]
+27.6 +23.1 77 +37 +37 очень
душно
1011.6 1010.9 +29.8
18 11.12 СВ 2 10 км мгла 9/4 660 м
[Sc Ac und Ci sp]
+27.2 +23.1 78 +36 +36 очень
душно
1012.6 1011.9

 

Местоположение метеостанции Kuala Trengganu (Малайзия): широта 5.38 долгота 103.10 высота над уровнем моря 6 м.

В архиве по умолчанию представлена погода в Kuala Trengganu за последнюю неделю. Архивные данные за месяц целиком и за предыдущие месяцы, начиная с января 2011 года, Вы можете получить, выбрав интересующий диапазон дат из раскрывающегося списка и нажав кнопку "Ввод!".

Внимание! Время в таблицах - всемирное. Для получения местного времени необходимо прибавить поправку, которая в Kuala Trengganu равна 7 ч.

Смотрите также архив погоды в соседних городах и на ближайших метеорологических станциях:

Погода в Mersing (Малайзия) (81 км)
Погода в Kota Bharu (Малайзия) (126 км)
Погода в Kuantan (Малайзия) (178 км)
Погода в Narathiwat (Таиланд) (184 км)
Погода в Cameron Highlands (Малайзия) (217 км)
Погода в Yala Agromet (Таиланд) (238 км)
Погода в Ipoh (Малайзия) (239 км)
Погода в Pattani (Таиланд) (266 км)
Погода в Sitiawan (Малайзия) (296 км)
Погода в Butterworth Air Base (Малайзия) (301 км)

Пояснения к столбцам:

Ветер - указаны скорость ветра в м/с - средняя за 10 мин, порывы в срок и между сроками (в фигурных скобках) и направление, откуда дует ветер: С - северный, СВ - северо-восточный, В - восточный, ЮВ - юго-восточный, Ю - южный, ЮЗ - юго-западный, З - западный, СЗ - северо-западный.
Видимость - горизонтальная дальность видимости в метрах или километрах. При видимости от 1 до 10 км при отсутствии осадков обычно наблюдается дымка, при ухудшении видимости до 1 км и менее - туман. В сухую погоду видимость может ухудшаться дымом, пылью или мглою.
Явления - указаны атмосферные явления, наблюдавшиеся в срок или в последний час перед сроком; фигурными скобками обозначены явления, наблюдавшиеся между сроками (за 1-3 часа до срока); квадратными скобками обозначены град или гололедные отложения с указанием их диаметра в мм.
Облачность - указаны через наклонную черту общая и нижняя облачность в баллах и высота нижней границы облаков в метрах; квадратными скобками обозначены формы облаков: Ci - перистые, Cs - перисто-слоистые, Cc - перисто-кучевые, Ac - высококучевые, As - высокослоистые, Sc - слоисто-кучевые, Ns - слоисто-дождевые, Cu - кучевые, Cb - кучево-дождевые. Подробнее классификацию облаков см. в Атласе облаков (PDF).
T - Температура воздуха - температура, измеренная на высоте 2 м над землей.
Td - Температура точки росы - температура, при понижении до которой содержащийся в воздухе водяной пар достигнет насыщения.
f - Относительная влажность воздуха - влажноcть воздуха, измеренная на высоте 2 м над землей.
Te - Эффективная температура - температура, которую ощущает одетый по сезону человек в тени. Характеристика душности погоды. При расчете учитывается влияние влажности воздуха и скорости ветра на теплоощущения человека.
Tes - Эффективная температура на солнце - температура, которую ощущает человек, с поправкой на солнечный нагрев. Характеристика знойности погоды. Зависит от высоты солнца над горизонтом, облачности и скорости ветра. Ночью, в пасмурную погоду, а также при ветре 12 м/с и более поправка равна нулю.
P - Атмосферное давление - приведенное к уровню моря атмосферное давление.
Po - Атмосферное давление - измеренное на уровне метеостанции атмосферное давление.
Tmin - Минимальная температура - минимум температуры воздуха на высоте 2 м над землей.
Tmax - Максимальная температура - максимум температуры воздуха на высоте 2 м над землей.
R - Количество осадков - Количество выпавших осадков за период времени, мм. При наведении курсора мыши на число - период времени, за который выпало указанное количество осадков.
R24 - Количество осадков - Количество выпавших осадков за 24 часа, мм.
S - Снежный покров - Высота снежного покрова, см. При наведении курсора мыши на число - состояние снежного покрова и степень покрытия местности в баллах.